Starlink 30873

operational
NORAD ID: 58249 Int'l Des: 2023-171 Owner: SPXS Country: US Constellation: starlink
LEOCIRCULAR

Über Starlink 30873

Beschreibung wird geladen...

Live-Position

3D-Globus wird geladen...

Nächste Überflüge

Höhenverlauf

Altitude vs Time

uPlot chart will show altitude changes over time

Zweizeiliger Elementsatz

1 58249U 23171V 26036.22367968 .00000371 00000-0 42540-4 0 9992
2 58249 43.0011 102.2407 0001301 271.0071 89.0622 15.02531267124846
Epoch: 5. Feb. 2026 • Age: 18 hours

Aktueller Status

Höhe 561.6 km
Geschwindigkeit 7.59 km/s
Subsatellitenpunkt 36.04°N, 99.32°E
Startdatum 8. Nov. 2023
Alter 2.2 years
Typ internet

Technische Details

Klassifizierung Payload
Masse 730.00 kg
Trockenmasse 700.00 kg
Gesamtmasse 730.00 kg
Länge 0.30 m
Durchmesser 4.10 m
Spannweite 29.00 m
Form Box + pan
Hersteller SPXS
Bus-Typ Starlink V2M
Phasenstatus In Orbit
Besitzer/Staat SPXS/US

Große Konstellationen

Loading constellations...